Home > Weather > Jülich > Past weeks

Flag for Germany Past Weather in Jülich, North Rhine-Westphalia, Germany — Yesterday and Last 2 Weeks

Now
73 °F

Broken clouds.


Feels Like: 76 °F
Forecast: 57 / 73 °F
Wind: 3 mph from Northwest

Location: Geilenkirchen Airport

Current Time: Jul 26, 2016 at 8:07:50 PM

Latest Report: Jul 26, 2016 at 6:50 PM


Visibility: N/A

Pressure: 30.12 "Hg

Humidity: 61%

Dew Point: 59 °F

Location of JülichLocation

Past Weather in Jülich — Graph

°F

Jülich Temperature Yesterday

Maximum temperature yesterday: 77 °F (at 1:50 PM)
Minimum temperature yesterday: 64 °F (at 2:50 AM)
Average temperature yesterday: 71 °F

High & Low Weather Summary for the Past Weeks

 TemperatureHumidityPressure
High95 °F (Jul 20, 1:50 PM)100% (Jul 18, 5:50 AM)30.33 "Hg (Jul 18, 5:50 AM)
Low50 °F (Jul 14, 3:50 AM)28% (Jul 20, 2:50 PM)29.86 "Hg (Jul 11, 6:50 PM)
Average69 °F70%30.07 "Hg
* Reported Jul 11 6:50 PM — Jul 26 6:50 PM, Jülich, Weather by CustomWeather, © 2016

Note: Actual official high and low records may vary slightly from our data, if they occured in-between our weather recording intervals... More about our weather records

Advertising

Jülich Weather History for the Previous 24 Hours

Scroll right to see more
 ConditionsComfort  
Time TempWeatherWind HumidityBarometerVisibility
6:50 PM
Tue, Jul 26
73 °FBroken clouds.3 mph61%30.12 "HgN/A
5:50 PM73 °FPartly sunny.2 mph57%30.12 "HgN/A
4:50 PM73 °FBroken clouds.3 mph57%30.12 "HgN/A
3:50 PM73 °FPartly sunny.2 mph61%30.15 "HgN/A
2:50 PM73 °FPartly sunny.5 mph57%30.15 "HgN/A
1:50 PM70 °FPartly sunny.1 mph64%30.15 "HgN/A
12:50 PM68 °FPartly sunny.2 mph69%30.15 "HgN/A
11:50 AM68 °FPartly sunny.5 mph73%30.15 "HgN/A
10:50 AM68 °FPartly sunny.3 mph78%30.15 "HgN/A
9:50 AM66 °FPartly sunny.1 mph78%30.15 "HgN/A
8:50 AM64 °FBroken clouds.2 mph83%30.15 "HgN/A
7:50 AM63 °FSunny.2 mph88%30.15 "Hg10 mi
6:50 AM63 °FClear.3 mph88%30.15 "Hg10 mi
5:50 AM61 °FClear.2 mph94%30.15 "Hg10 mi
4:50 AM63 °FPassing clouds.2 mph88%30.12 "HgN/A
3:50 AM63 °FPassing clouds.2 mph94%30.12 "HgN/A
2:50 AM64 °FPassing clouds.3 mph88%30.15 "HgN/A
1:50 AM64 °FPassing clouds.2 mph83%30.15 "HgN/A
12:50 AM63 °FPassing clouds.2 mph94%30.15 "HgN/A
11:50 PM
Mon, Jul 25
66 °FClear.5 mph94%30.12 "Hg10 mi
10:50 PM68 °FPassing clouds.7 mph88%30.12 "HgN/A
9:50 PM73 °FScattered showers. Scattered clouds.3 mph69%30.12 "HgN/A
8:50 PM73 °FScattered clouds.3 mph74%30.09 "HgN/A
Weather by CustomWeather, © 2016

See weather overviewHow to use our weather pages